AXB786 VIJP-VIDP

Flight info

Callsign AXB786
Flight time 0h 32m
Altitude 15000
Route UKASO1D UKASO UKASO6G
Aircraft A320/M-SDE3FGHIRWY/LB1

Departure

Time 2026-05-06 16:44
Airport Jaipur International Airport (VIJP)

Arrival

Time 2026-05-06 17:16
Airport Indira Gandhi International Airport (VIDP)
Time Latitude Longitude Altitude Speed Heading
2026-05-06 16:23 26.82688 75.80597 1258 ft 0 kts 354°
2026-05-06 16:37 26.82685 75.80597 1258 ft 3 kts 354°
2026-05-06 16:37 26.82659 75.80602 1261 ft 4 kts 344°
2026-05-06 16:38 26.82634 75.80612 1262 ft 4 kts 329°
2026-05-06 16:38 26.82613 75.80630 1258 ft 4 kts 301°
2026-05-06 16:38 26.82607 75.80650 1259 ft 0 kts 264°
2026-05-06 16:40 26.82606 75.80644 1260 ft 5 kts 264°
2026-05-06 16:40 26.82598 75.80555 1258 ft 18 kts 264°
2026-05-06 16:41 26.82584 75.80399 1258 ft 20 kts 264°
2026-05-06 16:41 26.82547 75.80334 1258 ft 0 kts 225°
2026-05-06 16:41 26.82546 75.80332 1263 ft 2 kts 225°
2026-05-06 16:42 26.82496 75.80244 1263 ft 20 kts 266°
2026-05-06 16:42 26.82484 75.80111 1258 ft 11 kts 266°
2026-05-06 16:42 26.82476 75.80029 1265 ft 10 kts 263°
2026-05-06 16:42 26.82465 75.79950 1257 ft 12 kts 245°
2026-05-06 16:43 26.82373 75.79926 1264 ft 18 kts 173°
2026-05-06 16:43 26.82306 75.79995 1258 ft 12 kts 89°
2026-05-06 16:43 26.82309 75.80029 1257 ft 0 kts 83°
2026-05-06 16:43 26.82312 75.80059 1255 ft 22 kts 84°
2026-05-06 16:44 26.82356 75.80522 1261 ft 94 kts 84°
2026-05-06 16:44 26.82446 75.81471 1264 ft 149 kts 83°
2026-05-06 16:44 26.82563 75.82760 1411 ft 178 kts 83°
2026-05-06 16:44 26.82724 75.84133 2030 ft 177 kts 81°
2026-05-06 16:45 26.83059 75.85435 2694 ft 170 kts 54°
2026-05-06 16:45 26.83938 75.86117 3459 ft 148 kts
2026-05-06 16:45 26.84999 75.85924 3666 ft 171 kts 342°
2026-05-06 16:45 26.86249 75.85661 3803 ft 195 kts 359°
2026-05-06 16:46 26.87695 75.85735 4015 ft 220 kts
2026-05-06 16:46 26.89306 75.85903 4324 ft 244 kts
2026-05-06 16:46 26.91069 75.86083 4799 ft 262 kts
2026-05-06 16:46 26.92909 75.86241 5549 ft 266 kts
2026-05-06 16:47 26.94770 75.86370 6337 ft 270 kts
2026-05-06 16:47 26.96661 75.86479 7124 ft 273 kts 360°
2026-05-06 16:47 26.98535 75.86572 7744 ft 276 kts 359°
2026-05-06 16:47 27.00456 75.86656 7826 ft 274 kts 359°
2026-05-06 16:48 27.02361 75.86734 7829 ft 274 kts 359°
2026-05-06 16:48 27.04264 75.86812 7833 ft 273 kts 359°
2026-05-06 16:48 27.06160 75.86891 7839 ft 273 kts 359°
2026-05-06 16:48 27.06653 75.86912 7839 ft 273 kts 359°
2026-05-06 16:49 27.07198 75.86935 7834 ft 273 kts 359°
2026-05-06 16:49 27.08100 75.86974 7833 ft 274 kts 359°
2026-05-06 16:49 27.09228 75.87021 7835 ft 274 kts 359°
2026-05-06 16:49 27.11133 75.87101 7836 ft 274 kts 359°
2026-05-06 16:50 27.13038 75.87185 7836 ft 274 kts 359°
2026-05-06 16:50 27.14942 75.87268 7834 ft 274 kts 359°
2026-05-06 16:50 27.16846 75.87305 7831 ft 273 kts 357°
2026-05-06 16:50 27.18106 75.87293 7840 ft 273 kts 356°
2026-05-06 16:51 27.20624 75.87238 7845 ft 273 kts 356°
2026-05-06 16:51 27.22459 75.87194 8872 ft 253 kts 355°
2026-05-06 16:51 27.24169 75.87158 10053 ft 242 kts 355°
2026-05-06 16:51 27.25844 75.87124 10855 ft 241 kts 355°
2026-05-06 16:52 27.27528 75.87089 11589 ft 242 kts 355°
2026-05-06 16:52 27.29222 75.87053 12316 ft 245 kts 355°
2026-05-06 16:52 27.30927 75.87019 13022 ft 247 kts 355°
2026-05-06 16:52 27.32652 75.86986 13735 ft 248 kts 355°
2026-05-06 16:53 27.34395 75.86955 14369 ft 251 kts 355°
2026-05-06 16:53 27.36177 75.86920 14732 ft 267 kts 355°
2026-05-06 16:53 27.38120 75.86876 14816 ft 292 kts 355°
2026-05-06 16:53 27.40248 75.86826 14832 ft 318 kts 356°
2026-05-06 16:54 27.42553 75.86777 14833 ft 343 kts 356°
2026-05-06 16:54 27.45003 75.86733 14831 ft 360 kts 356°
2026-05-06 16:54 27.47492 75.86698 14830 ft 364 kts 356°
2026-05-06 16:54 27.50029 75.86663 14826 ft 365 kts 356°
2026-05-06 16:55 27.52568 75.86622 14828 ft 365 kts 356°
2026-05-06 16:55 27.55145 75.86578 14829 ft 365 kts 356°
2026-05-06 16:55 27.57644 75.86530 14825 ft 365 kts 356°
2026-05-06 16:55 27.60184 75.86481 14823 ft 365 kts 356°
2026-05-06 16:56 27.62730 75.86474 14823 ft 366 kts
2026-05-06 16:56 27.65252 75.86915 14826 ft 371 kts 11°
2026-05-06 16:56 27.67732 75.87741 14828 ft 371 kts 13°
2026-05-06 16:56 27.70208 75.88580 14831 ft 371 kts 13°
2026-05-06 16:57 27.72682 75.89416 14831 ft 371 kts 13°
2026-05-06 16:57 27.75159 75.90251 14825 ft 373 kts 13°
2026-05-06 16:57 27.77661 75.91091 14832 ft 375 kts 13°
2026-05-06 16:57 27.80146 75.91929 14823 ft 371 kts 13°
2026-05-06 16:58 27.82617 75.92763 14820 ft 370 kts 13°
2026-05-06 16:58 27.85084 75.93596 14815 ft 370 kts 13°
2026-05-06 16:58 27.87552 75.94427 14813 ft 370 kts 13°
2026-05-06 16:58 27.90019 75.95257 14812 ft 370 kts 13°
2026-05-06 16:59 27.92489 75.96092 14815 ft 369 kts 13°
2026-05-06 16:59 27.94946 75.96923 14815 ft 369 kts 13°
2026-05-06 16:59 27.97414 75.97758 14810 ft 369 kts 13°
2026-05-06 16:59 27.99871 75.98590 14809 ft 369 kts 13°
2026-05-06 17:00 28.02332 75.99423 14812 ft 369 kts 13°
2026-05-06 17:00 28.04797 76.00258 14815 ft 369 kts 13°
2026-05-06 17:00 28.07255 76.01091 14808 ft 369 kts 13°
2026-05-06 17:00 28.09711 76.01924 14809 ft 368 kts 13°
2026-05-06 17:01 28.12161 76.02757 14806 ft 368 kts 13°
2026-05-06 17:01 28.14616 76.03589 14805 ft 368 kts 13°
2026-05-06 17:01 28.17037 76.04411 14804 ft 368 kts 13°
2026-05-06 17:01 28.19462 76.05350 14801 ft 370 kts 21°
2026-05-06 17:02 28.21690 76.06846 14797 ft 376 kts 34°
2026-05-06 17:02 28.23581 76.08914 14793 ft 381 kts 47°
2026-05-06 17:02 28.25014 76.11450 14794 ft 380 kts 59°
2026-05-06 17:02 28.26179 76.14110 14805 ft 373 kts 59°
2026-05-06 17:03 28.27314 76.16696 14714 ft 360 kts 59°
2026-05-06 17:03 28.28412 76.19192 14595 ft 348 kts 59°
2026-05-06 17:03 28.29480 76.21604 14478 ft 337 kts 58°
2026-05-06 17:03 28.30171 76.23163 14402 ft 330 kts 58°
2026-05-06 17:04 28.31526 76.26215 14236 ft 318 kts 58°
2026-05-06 17:04 28.32502 76.28421 14126 ft 309 kts 58°
2026-05-06 17:04 28.33452 76.30572 14013 ft 301 kts 58°
2026-05-06 17:04 28.34068 76.31969 13889 ft 296 kts 58°
2026-05-06 17:05 28.34981 76.34039 13419 ft 292 kts 58°
2026-05-06 17:05 28.35903 76.36116 12649 ft 298 kts 58°
2026-05-06 17:05 28.36847 76.38232 11851 ft 303 kts 58°
2026-05-06 17:05 28.37807 76.40386 11062 ft 308 kts 59°
2026-05-06 17:06 28.38773 76.42569 10287 ft 311 kts 59°
2026-05-06 17:06 28.39746 76.44781 9495 ft 313 kts 59°
2026-05-06 17:06 28.40719 76.46995 8696 ft 314 kts 60°
2026-05-06 17:06 28.41672 76.49174 8293 ft 301 kts 60°
2026-05-06 17:07 28.42561 76.51219 8017 ft 284 kts 60°
2026-05-06 17:07 28.43415 76.53178 7762 ft 269 kts 60°
2026-05-06 17:07 28.44225 76.55029 7518 ft 254 kts 60°
2026-05-06 17:07 28.45001 76.56799 7286 ft 248 kts 60°
2026-05-06 17:08 28.45768 76.58545 7056 ft 246 kts 60°
2026-05-06 17:08 28.46532 76.60280 6828 ft 245 kts 60°
2026-05-06 17:08 28.47293 76.62008 6604 ft 244 kts 60°
2026-05-06 17:08 28.48050 76.63730 6377 ft 242 kts 60°
2026-05-06 17:09 28.48801 76.65440 6145 ft 241 kts 60°
2026-05-06 17:09 28.49546 76.67136 5914 ft 240 kts 61°
2026-05-06 17:09 28.50287 76.68828 5686 ft 238 kts 61°
2026-05-06 17:09 28.51024 76.70511 5570 ft 237 kts 61°
2026-05-06 17:10 28.51758 76.72189 5471 ft 238 kts 62°
2026-05-06 17:10 28.52593 76.73774 5327 ft 237 kts 53°
2026-05-06 17:10 28.53535 76.75299 5133 ft 234 kts 53°
2026-05-06 17:10 28.54487 76.76803 5045 ft 235 kts 53°
2026-05-06 17:11 28.55442 76.78307 4874 ft 234 kts 53°
2026-05-06 17:11 28.56394 76.79804 4668 ft 233 kts 53°
2026-05-06 17:11 28.57335 76.81294 4468 ft 232 kts 53°
2026-05-06 17:11 28.58272 76.82782 4270 ft 230 kts 53°
2026-05-06 17:12 28.59137 76.84295 4014 ft 228 kts 65°
2026-05-06 17:12 28.59408 76.86107 3442 ft 241 kts 96°
2026-05-06 17:12 28.59044 76.87950 3080 ft 242 kts 103°
2026-05-06 17:12 28.58640 76.89807 2741 ft 242 kts 103°
2026-05-06 17:13 28.58248 76.91640 2597 ft 233 kts 103°
2026-05-06 17:13 28.57877 76.93382 2601 ft 219 kts 103°
2026-05-06 17:13 28.57534 76.94993 2598 ft 207 kts 103°
2026-05-06 17:13 28.57197 76.96576 2503 ft 199 kts 103°
2026-05-06 17:14 28.56880 76.98061 2283 ft 192 kts 103°
2026-05-06 17:14 28.56573 76.99502 2048 ft 183 kts 103°
2026-05-06 17:14 28.56279 77.00878 1810 ft 175 kts 103°
2026-05-06 17:14 28.55999 77.02190 1625 ft 164 kts 102°
2026-05-06 17:15 28.55740 77.03402 1435 ft 151 kts 103°
2026-05-06 17:15 28.55497 77.04540 1278 ft 145 kts 103°
2026-05-06 17:15 28.55260 77.05647 1103 ft 142 kts 104°
2026-05-06 17:15 28.55045 77.06749 903 ft 142 kts 102°
2026-05-06 17:16 28.54800 77.07824 771 ft 140 kts 104°
2026-05-06 17:16 28.54594 77.08781 749 ft 107 kts 103°
2026-05-06 17:16 28.54450 77.09450 748 ft 59 kts 103°
2026-05-06 17:16 28.54364 77.09856 748 ft 34 kts 103°
2026-05-06 17:17 28.54392 77.09977 749 ft 15 kts 70°
2026-05-06 17:17 28.54424 77.10095 749 ft 16 kts 73°
2026-05-06 17:17 28.54505 77.10084 749 ft 15 kts 291°
2026-05-06 17:17 28.54529 77.09978 750 ft 13 kts 285°
2026-05-06 17:18 28.54553 77.09884 749 ft 12 kts 286°
2026-05-06 17:18 28.54573 77.09799 750 ft 10 kts 282°
2026-05-06 17:18 28.54588 77.09725 750 ft 9 kts 283°
2026-05-06 17:18 28.54605 77.09654 749 ft 15 kts 287°
2026-05-06 17:19 28.54672 77.09372 748 ft 58 kts 285°
2026-05-06 17:19 28.54776 77.08917 750 ft 58 kts 285°
2026-05-06 17:19 28.54874 77.08488 749 ft 54 kts 285°
2026-05-06 17:19 28.54958 77.08300 749 ft 14 kts 358°
2026-05-06 17:20 28.55022 77.08230 751 ft 17 kts 288°
2026-05-06 17:20 28.55055 77.08086 751 ft 19 kts 285°
2026-05-06 17:20 28.55086 77.07949 750 ft 17 kts 284°
2026-05-06 17:20 28.55160 77.07900 750 ft 13 kts 12°
2026-05-06 17:21 28.55219 77.07967 749 ft 13 kts 63°
2026-05-06 17:21 28.55230 77.07990 749 ft 0 kts 63°
2026-05-06 17:21 28.55229 77.07994 749 ft 2 kts 86°
2026-05-06 17:21 28.55201 77.08030 750 ft 10 kts 139°
2026-05-06 17:22 28.55173 77.08059 750 ft 2 kts 140°
2026-05-06 17:22 28.55170 77.08062 749 ft 0 kts 140°